| time (UTC) | temp F | wind direction | speed knots | gust knots | rain 1hr in | rain 24hr in | rain mn in | humidity % | barometer mb |
| 20260505070110 | 57 | 115 | 0.0 | 0.0 | 0.00 | 0.00 | 0.00 | 79 | 1014.4 |
| 20260505065109 | 57 | 115 | 0.0 | 0.0 | 0.00 | 0.00 | 0.00 | 79 | 1014.4 |
| 20260505064108 | 57 | 115 | 0.0 | 0.0 | 0.00 | 0.00 | 0.00 | 77 | 1014.4 |
| 20260505063107 | 57 | 115 | 0.0 | 0.0 | 0.00 | 0.00 | 0.00 | 77 | 1014.4 |
| 20260505062106 | 57 | 115 | 0.0 | 0.0 | 0.00 | 0.00 | 0.00 | 76 | 1014.5 |
| 20260505060104 | 57 | 115 | 0.0 | 0.0 | 0.00 | 0.00 | 0.00 | 73 | 1014.5 |
| 20260505054102 | 57 | 115 | 0.0 | 0.0 | 0.00 | 0.00 | 0.00 | 73 | 1014.6 |
| 20260505053101 | 57 | 115 | 0.0 | 0.0 | 0.00 | 0.00 | 0.00 | 73 | 1014.6 |
| 20260505052100 | 57 | 115 | 0.0 | 0.0 | 0.00 | 0.00 | 0.00 | 72 | 1014.6 |
| 20260505051059 | 58 | 115 | 0.0 | 0.0 | 0.00 | 0.00 | 0.00 | 72 | 1014.7 |
| 20260505034049 | 58 | 112 | 0.0 | 0.0 | 0.00 | 0.00 | 0.00 | 74 | 1014.7 |
| 20260505033049 | 58 | 221 | 0.0 | 0.0 | 0.00 | 0.00 | 0.00 | 73 | 1014.6 |
| 20260505032047 | 58 | 221 | 0.0 | 0.9 | 0.00 | 0.00 | 0.00 | 72 | 1014.5 |
| 20260505031046 | 58 | 212 | 0.0 | 0.0 | 0.00 | 0.00 | 0.00 | 73 | 1014.6 |
| 20260505030046 | 59 | 236 | 0.0 | 0.0 | 0.00 | 0.00 | 0.00 | 73 | 1014.5 |
| 20260505025045 | 59 | 246 | 0.0 | 0.9 | 0.00 | 0.00 | 0.00 | 73 | 1014.4 |
| 20260505024044 | 59 | 304 | 0.0 | 3.5 | 0.00 | 0.00 | 0.00 | 71 | 1014.4 |
| 20260505021040 | 62 | 236 | 0.9 | 0.9 | 0.00 | 0.00 | 0.00 | 64 | 1014.0 |
| 20260505015038 | 62 | 130 | 0.0 | 0.0 | 0.00 | 0.00 | 0.00 | 64 | 1013.9 |
| 20260505014037 | 62 | 102 | 0.0 | 0.9 | 0.00 | 0.00 | 0.00 | 65 | 1014.1 |
| 20260505013036 | 62 | 149 | 0.0 | 0.0 | 0.00 | 0.00 | 0.00 | 65 | 1014.2 |
| 20260505012035 | 62 | 234 | 0.0 | 0.0 | 0.00 | 0.00 | 0.00 | 65 | 1014.2 |
| 20260505011034 | 62 | 204 | 0.0 | 3.5 | 0.00 | 0.00 | 0.00 | 65 | 1014.4 |
| 20260505010033 | 63 | 181 | 0.0 | 0.0 | 0.00 | 0.00 | 0.00 | 64 | 1014.3 |
| 20260505005032 | 63 | 248 | 3.5 | 3.5 | 0.00 | 0.00 | 0.00 | 62 | 1014.3 |
| 20260505004031 | 64 | 292 | 0.0 | 1.7 | 0.00 | 0.00 | 0.00 | 63 | 1014.3 |
| 20260505003030 | 64 | 136 | 0.0 | 2.6 | 0.00 | 0.00 | 0.00 | 63 | 1014.3 |
| 20260505002029 | 65 | 245 | 0.0 | 1.7 | 0.00 | 0.00 | 0.00 | 61 | 1014.2 |
| 20260505001028 | 66 | 210 | 0.0 | 3.5 | 0.00 | 0.00 | 0.00 | 59 | 1014.2 |
| 20260504235026 | 65 | 212 | 0.0 | 1.7 | 0.00 | 0.00 | 0.00 | 60 | 1014.0 |
| 20260504234025 | 65 | 227 | 0.0 | 3.5 | 0.00 | 0.00 | 0.00 | 60 | 1014.0 |
| 20260504233024 | 65 | 131 | 0.0 | 1.7 | 0.00 | 0.00 | 0.00 | 60 | 1014.0 |
| 20260504232023 | 65 | 318 | 0.0 | 3.5 | 0.00 | 0.00 | 0.00 | 60 | 1014.1 |
| 20260504231022 | 65 | 269 | 0.9 | 1.7 | 0.00 | 0.00 | 0.00 | 61 | 1014.2 |
| 20260504230021 | 65 | 230 | 0.0 | 3.5 | 0.00 | 0.00 | 0.00 | 61 | 1014.3 |
| 20260504225020 | 66 | 274 | 0.0 | 3.5 | 0.00 | 0.00 | 0.00 | 58 | 1014.3 |
| 20260504224019 | 67 | 134 | 0.9 | 1.7 | 0.00 | 0.00 | 0.00 | 59 | 1014.5 |
| 20260504223018 | 67 | 294 | 2.6 | 2.6 | 0.00 | 0.00 | 0.00 | 55 | 1014.4 |
| 20260504222017 | 67 | 323 | 1.7 | 4.3 | 0.00 | 0.00 | 0.00 | 55 | 1014.5 |
| 20260504221016 | 67 | 297 | 0.9 | 5.2 | 0.00 | 0.00 | 0.00 | 57 | 1014.7 |
| 20260504220015 | 68 | 255 | 0.9 | 2.6 | 0.00 | 0.00 | 0.00 | 53 | 1014.9 |
| 20260504215014 | 68 | 235 | 1.7 | 5.2 | 0.00 | 0.00 | 0.00 | 55 | 1015.1 |
| 20260504214013 | 68 | 226 | 0.0 | 5.2 | 0.00 | 0.00 | 0.00 | 53 | 1015.2 |
| 20260504213012 | 68 | 238 | 3.5 | 3.5 | 0.00 | 0.00 | 0.00 | 52 | 1015.1 |
| 20260504212011 | 69 | 255 | 1.7 | 7.0 | 0.00 | 0.00 | 0.00 | 50 | 1015.0 |
| 20260504211010 | 70 | 276 | 0.9 | 3.5 | 0.00 | 0.00 | 0.00 | 47 | 1015.2 |
| 20260504205008 | 69 | 214 | 0.0 | 4.3 | 0.00 | 0.00 | 0.00 | 50 | 1015.0 |
| 20260504201004 | 69 | 124 | 0.0 | 2.6 | 0.00 | 0.00 | 0.00 | 50 | 1015.1 |
| 20260504200003 | 69 | 170 | 0.0 | 0.9 | 0.00 | 0.00 | 0.00 | 52 | 1015.1 |
| 20260504193000 | 66 | 225 | 0.0 | 0.0 | 0.00 | 0.00 | 0.00 | 57 | 1015.4 |
| 20260504185957 | 62 | 105 | 0.0 | 0.0 | 0.00 | 0.00 | 0.00 | 64 | 1015.6 |
| 20260504184956 | 62 | 261 | 0.0 | 0.9 | 0.00 | 0.00 | 0.00 | 64 | 1015.6 |
| 20260504183955 | 62 | 198 | 0.9 | 1.7 | 0.00 | 0.00 | 0.00 | 63 | 1015.6 |
| 20260504175951 | 63 | 90 | 0.0 | 0.9 | 0.00 | 0.00 | 0.00 | 63 | 1015.5 |
| 20260504174950 | 62 | 96 | 0.0 | 0.9 | 0.00 | 0.00 | 0.00 | 65 | 1015.6 |
| 20260504173949 | 62 | 101 | 0.0 | 0.0 | 0.00 | 0.00 | 0.00 | 66 | 1015.5 |
| 20260504172948 | 62 | 127 | 0.0 | 1.7 | 0.00 | 0.00 | 0.00 | 66 | 1015.4 |
| 20260504171947 | 62 | 113 | 0.0 | 0.0 | 0.00 | 0.00 | 0.00 | 67 | 1015.4 |
| 20260504170946 | 62 | 101 | 0.0 | 0.0 | 0.00 | 0.00 | 0.00 | 68 | 1015.4 |
| 20260504150934 | 58 | 71 | 0.0 | 0.9 | 0.00 | 0.00 | 0.00 | 79 | 1014.9 |
| 20260504081852 | 57 | 94 | 0.0 | 0.0 | 0.00 | 0.00 | 0.00 | 81 | 1015.3 |
| 20260504080851 | 57 | 94 | 0.0 | 0.0 | 0.00 | 0.00 | 0.00 | 81 | 1015.2 |